N6CTG Weather Reports


time (UTC)temp
C
wind
direction
speed
KPH
gust
KPH
rain 1hr
cm
rain 24hr
cm
rain mn
cm
humidity
%
barometer
mb
20260507094503 10 0 0.0 0.0 0.00 0.00 0.00 91 1014.2
20260507093624 10 0 0.0 0.0 0.00 0.00 0.00 91 1014.3
20260507092703 10 0 0.0 0.0 0.00 0.00 0.00 91 1014.4
20260507091803 10 0 0.0 0.0 0.00 0.00 0.00 91 1014.6
20260507090903 10 0 0.0 0.0 0.00 0.00 0.00 91 1014.6
20260507090005 10 0 0.0 0.0 0.00 0.00 0.00 91 1014.7
20260507085403 10 0 0.0 0.0 0.00 0.00 0.00 91 1014.7
20260507084503 10 0 0.0 0.0 0.00 0.00 0.00 91 1014.9
20260507083603 10 0 0.0 0.0 0.00 0.00 0.00 91 1014.9
20260507082703 10 0 0.0 0.0 0.00 0.00 0.00 91 1015.0
20260507081803 10 0 0.0 0.0 0.00 0.00 0.00 90 1015.0
20260507080903 11 0 0.0 0.0 0.00 0.00 0.00 90 1015.1
20260507080003 11 0 0.0 0.0 0.00 0.00 0.00 90 1015.1
20260507075424 11 0 0.0 0.0 0.00 0.00 0.00 90 1015.0
20260507074503 11 0 0.0 0.0 0.00 0.00 0.00 90 1015.0
20260507073604 11 0 0.0 0.0 0.00 0.00 0.00 90 1015.2
20260507072703 11 0 0.0 0.0 0.00 0.00 0.00 89 1015.2
20260507071805 11 0 0.0 0.0 0.00 0.00 0.00 89 1015.3
20260507070904 11 0 0.0 0.0 0.00 0.00 0.00 89 1015.3
20260507070005 11 0 0.0 0.0 0.00 0.00 0.00 89 1015.3
20260507065403 11 0 0.0 0.0 0.00 0.00 0.00 89 1015.4
20260507064503 11 0 0.0 0.0 0.00 0.00 0.00 89 1015.5
20260507063603 12 0 0.0 0.0 0.00 0.00 0.00 88 1015.6
20260507062703 12 0 0.0 0.0 0.00 0.00 0.00 88 1015.6
20260507061803 12 0 0.0 0.0 0.00 0.00 0.00 88 1015.5
20260507060903 12 0 0.0 0.0 0.00 0.00 0.00 87 1015.5
20260507060003 12 0 0.0 0.0 0.00 0.00 0.00 87 1015.5
20260507055403 12 0 0.0 0.0 0.00 0.00 0.00 87 1015.4
20260507054503 12 0 0.0 0.0 0.00 0.00 0.00 87 1015.4
20260507053603 12 0 0.0 0.0 0.00 0.00 0.00 86 1015.4
20260507052703 12 0 0.0 0.0 0.00 0.00 0.00 86 1015.4
20260507051803 12 0 0.0 0.0 0.00 0.00 0.00 85 1015.3
20260507050903 13 0 0.0 0.0 0.00 0.00 0.00 84 1015.3
20260507050003 13 0 0.0 0.0 0.00 0.00 0.00 84 1015.3
20260507045403 13 0 0.0 0.0 0.00 0.00 0.00 84 1015.4
20260507044503 13 0 0.0 0.0 0.00 0.00 0.00 83 1015.3
20260507043603 13 0 0.0 0.0 0.00 0.00 0.00 83 1015.2
20260507042703 13 0 0.0 0.0 0.00 0.00 0.00 82 1015.2
20260507041824 14 0 0.0 0.0 0.00 0.00 0.00 81 1015.1
20260507040903 14 0 0.0 0.0 0.00 0.00 0.00 81 1015.1
20260507040003 14 0 0.0 0.0 0.00 0.00 0.00 81 1015.1
20260507035403 15 0 0.0 0.0 0.00 0.00 0.00 80 1015.1
20260507034503 15 0 0.0 0.0 0.00 0.00 0.00 80 1015.0
20260507033624 15 0 0.0 0.0 0.00 0.00 0.00 80 1014.9
20260507032703 15 0 0.0 0.0 0.00 0.00 0.00 79 1014.8
20260507031803 15 0 0.0 0.0 0.00 0.00 0.00 79 1014.8
20260507030903 15 0 0.0 0.0 0.00 0.00 0.00 78 1014.8
20260507030004 16 248 0.0 6.4 0.00 0.00 0.00 77 1014.6
20260507025403 16 251 0.0 6.4 0.00 0.00 0.00 77 1014.7
20260507024504 16 250 1.6 4.8 0.00 0.00 0.00 76 1014.6
20260507023603 16 245 3.2 6.4 0.00 0.00 0.00 74 1014.4
20260507022703 17 243 3.2 8.0 0.00 0.00 0.00 72 1014.4
20260507021824 17 244 3.2 8.0 0.00 0.00 0.00 70 1014.3
20260507020903 18 243 4.8 8.0 0.00 0.00 0.00 68 1014.3
20260507020003 18 241 4.8 9.7 0.00 0.00 0.00 66 1014.2
20260507015424 18 243 4.8 9.7 0.00 0.00 0.00 66 1014.1
20260507014503 19 251 3.2 9.7 0.00 0.00 0.00 64 1014.1
20260507013603 19 255 1.6 8.0 0.00 0.00 0.00 64 1014.1
20260507012724 19 246 4.8 11.3 0.00 0.00 0.00 63 1014.0
20260507011803 20 235 6.4 14.5 0.00 0.00 0.00 63 1014.0
20260507010903 20 248 4.8 9.7 0.00 0.00 0.00 63 1014.0
20260507010003 20 247 4.8 11.3 0.00 0.00 0.00 63 1014.0
20260507005403 20 255 4.8 12.9 0.00 0.00 0.00 61 1014.0
20260507004503 20 257 4.8 12.9 0.00 0.00 0.00 62 1013.9
20260507003603 20 243 6.4 14.5 0.00 0.00 0.00 61 1013.9
20260507002725 20 240 6.4 16.1 0.00 0.00 0.00 63 1013.8
20260507001802 20 244 8.0 14.5 0.00 0.00 0.00 62 1013.8
20260507000902 21 245 6.4 14.5 0.00 0.00 0.00 61 1013.7
20260507000023 21 250 6.4 14.5 0.00 0.00 0.00 61 1013.6
20260506235402 21 245 6.4 14.5 0.00 0.00 0.00 61 1013.6
20260506234502 21 244 8.0 17.7 0.00 0.00 0.00 62 1013.4
20260506233603 21 242 9.7 17.7 0.00 0.00 0.00 61 1013.4
20260506232702 21 249 6.4 16.1 0.00 0.00 0.00 60 1013.5
20260506231802 21 257 8.0 14.5 0.00 0.00 0.00 60 1013.5
20260506230923 21 246 9.7 17.7 0.00 0.00 0.00 60 1013.6
20260506230002 22 245 6.4 14.5 0.00 0.00 0.00 59 1013.6
20260506225402 22 248 8.0 14.5 0.00 0.00 0.00 59 1013.5
20260506224502 22 246 9.7 17.7 0.00 0.00 0.00 58 1013.6
20260506223602 22 251 8.0 17.7 0.00 0.00 0.00 56 1013.6
20260506222702 22 255 9.7 16.1 0.00 0.00 0.00 56 1013.6
20260506221802 22 245 9.7 17.7 0.00 0.00 0.00 55 1013.7
20260506220902 22 242 9.7 19.3 0.00 0.00 0.00 54 1013.8
20260506220002 22 252 8.0 17.7 0.00 0.00 0.00 56 1013.9
20260506215402 22 254 9.7 17.7 0.00 0.00 0.00 55 1013.9
20260506214502 22 249 8.0 17.7 0.00 0.00 0.00 54 1014.0
20260506213602 22 244 8.0 19.3 0.00 0.00 0.00 54 1014.1
20260506212702 22 248 8.0 17.7 0.00 0.00 0.00 54 1014.2
20260506211823 22 241 8.0 17.7 0.00 0.00 0.00 54 1014.2
20260506210923 22 247 9.7 17.7 0.00 0.00 0.00 53 1014.3
20260506210002 22 231 9.7 17.7 0.00 0.00 0.00 53 1014.4
20260506205402 22 235 9.7 17.7 0.00 0.00 0.00 52 1014.4
20260506204523 22 235 8.0 14.5 0.00 0.00 0.00 49 1014.5
20260506203602 22 250 6.4 16.1 0.00 0.00 0.00 48 1014.5
20260506202703 22 247 6.4 16.1 0.00 0.00 0.00 46 1014.7
20260506201802 22 260 4.8 11.3 0.00 0.00 0.00 46 1014.7
20260506200902 22 250 6.4 12.9 0.00 0.00 0.00 48 1014.8
20260506200002 21 248 4.8 12.9 0.00 0.00 0.00 50 1014.9
20260506195403 21 254 4.8 12.9 0.00 0.00 0.00 50 1015.0
20260506194502 21 258 3.2 11.3 0.00 0.00 0.00 53 1015.1
20260506193602 21 257 4.8 9.7 0.00 0.00 0.00 53 1015.2
20260506192723 21 234 6.4 14.5 0.00 0.00 0.00 54 1015.4
20260506191823 20 241 8.0 14.5 0.00 0.00 0.00 57 1015.4
20260506190902 20 232 8.0 16.1 0.00 0.00 0.00 57 1015.5
20260506190002 20 242 4.8 12.9 0.00 0.00 0.00 57 1015.5
20260506185403 20 250 3.2 12.9 0.00 0.00 0.00 59 1015.6
20260506184523 20 259 3.2 11.3 0.00 0.00 0.00 58 1015.7
20260506183602 19 242 4.8 11.3 0.00 0.00 0.00 59 1015.8
20260506182702 19 253 3.2 9.7 0.00 0.00 0.00 59 1015.9
20260506181802 18 246 3.2 14.5 0.00 0.00 0.00 61 1016.0
20260506180902 18 223 4.8 11.3 0.00 0.00 0.00 64 1016.1
20260506180003 18 231 4.8 14.5 0.00 0.00 0.00 62 1016.2
20260506175402 18 239 4.8 11.3 0.00 0.00 0.00 62 1016.2
20260506174502 18 246 3.2 9.7 0.00 0.00 0.00 62 1016.2
20260506173602 17 237 6.4 11.3 0.00 0.00 0.00 64 1016.4
20260506172723 17 243 1.6 11.3 0.00 0.00 0.00 63 1016.5
20260506171802 17 242 4.8 9.7 0.00 0.00 0.00 63 1016.6
20260506170902 16 239 1.6 6.4 0.00 0.00 0.00 66 1016.5
20260506170003 16 229 3.2 11.3 0.00 0.00 0.00 69 1016.6
20260506165402 16 240 3.2 11.3 0.00 0.00 0.00 68 1016.4
20260506164502 16 230 1.6 8.0 0.00 0.00 0.00 70 1016.5
20260506163602 15 180 1.6 6.4 0.00 0.00 0.00 70 1016.6
20260506162702 15 239 0.0 3.2 0.00 0.00 0.00 71 1016.6
20260506161802 15 276 1.6 6.4 0.00 0.00 0.00 72 1016.6
20260506160903 15 289 0.0 4.8 0.00 0.00 0.00 73 1016.6
20260506160002 13 249 0.0 4.8 0.00 0.00 0.00 74 1016.5
20260506155402 13 230 1.6 4.8 0.00 0.00 0.00 75 1016.6
20260506154523 13 229 0.0 4.8 0.00 0.00 0.00 76 1016.5
20260506153602 13 0 0.0 0.0 0.00 0.00 0.00 78 1016.6
20260506152723 13 0 0.0 0.0 0.00 0.00 0.00 80 1016.6
20260506151802 13 0 0.0 0.0 0.00 0.00 0.00 83 1016.7
20260506150902 13 0 0.0 0.0 0.00 0.00 0.00 87 1016.7
20260506150002 12 0 0.0 0.0 0.00 0.00 0.00 89 1016.8
20260506145402 12 0 0.0 0.0 0.00 0.00 0.00 90 1016.7
20260506144502 11 0 0.0 0.0 0.00 0.00 0.00 89 1016.8
20260506143603 11 0 0.0 0.0 0.00 0.00 0.00 91 1016.7
20260506142702 10 0 0.0 0.0 0.00 0.00 0.00 91 1016.7
20260506141802 10 0 0.0 0.0 0.00 0.00 0.00 91 1016.6
20260506140902 9 0 0.0 0.0 0.00 0.00 0.00 91 1016.6
20260506140023 9 0 0.0 0.0 0.00 0.00 0.00 92 1016.6
20260506135423 8 0 0.0 0.0 0.00 0.00 0.00 92 1016.5
20260506134502 5 0 0.0 0.0 0.00 0.00 0.00 94 1016.5
20260506133602 5 0 0.0 0.0 0.00 0.00 0.00 94 1016.4
20260506132702 5 0 0.0 0.0 0.00 0.00 0.00 94 1016.3
20260506131823 5 0 0.0 0.0 0.00 0.00 0.00 94 1016.2
20260506130902 5 0 0.0 0.0 0.00 0.00 0.00 94 1016.1
20260506130002 5 0 0.0 0.0 0.00 0.00 0.00 94 1016.0
20260506125402 5 0 0.0 0.0 0.00 0.00 0.00 94 1016.0
20260506124502 5 0 0.0 0.0 0.00 0.00 0.00 94 1015.8
20260506123602 5 0 0.0 0.0 0.00 0.00 0.00 94 1015.8
20260506122702 5 0 0.0 0.0 0.00 0.00 0.00 94 1015.8
20260506121802 5 0 0.0 0.0 0.00 0.00 0.00 94 1015.7
20260506120902 5 0 0.0 0.0 0.00 0.00 0.00 94 1015.7
20260506120002 6 0 0.0 0.0 0.00 0.00 0.00 92 1015.7
20260506115402 6 0 0.0 0.0 0.00 0.00 0.00 92 1015.6
20260506114502 6 0 0.0 0.0 0.00 0.00 0.00 92 1015.7
20260506113602 7 0 0.0 0.0 0.00 0.00 0.00 92 1015.7
20260506112702 7 0 0.0 0.0 0.00 0.00 0.00 92 1015.6
20260506111802 7 0 0.0 0.0 0.00 0.00 0.00 92 1015.6
20260506110902 7 0 0.0 0.0 0.00 0.00 0.00 92 1015.5
20260506110002 7 0 0.0 0.0 0.00 0.00 0.00 92 1015.4
20260506105402 7 0 0.0 0.0 0.00 0.00 0.00 92 1015.4
20260506104502 7 0 0.0 0.0 0.00 0.00 0.00 92 1015.4
20260506103602 7 0 0.0 0.0 0.00 0.00 0.00 91 1015.4
20260506102702 7 0 0.0 0.0 0.00 0.00 0.00 91 1015.3
20260506101802 7 0 0.0 0.0 0.00 0.00 0.00 91 1015.3
20260506100902 7 0 0.0 0.0 0.00 0.00 0.00 91 1015.4
20260506100002 7 0 0.0 0.0 0.00 0.00 0.00 91 1015.3
20260506095423 7 0 0.0 0.0 0.00 0.00 0.00 91 1015.3